CW0060 Weather Reports


Display with metric or nautical units.
time (UTC)temp
F
wind
direction
speed
MPH
gust
MPH
rain 1hr
in
rain 24hr
in
rain mn
in
humidity
%
barometer
mb
20260504025205 52 104 2.0 5.0 0.00 0.00 0.00 75 1013.6
20260504024705 52 170 2.0 5.0 0.00 0.00 0.00 74 1013.6
20260504024206 52 162 1.0 4.0 0.00 0.00 0.00 74 1013.6
20260504023705 52 122 2.0 4.0 0.00 0.00 0.00 74 1013.5
20260504023205 52 155 2.0 4.0 0.00 0.00 0.00 74 1013.3
20260504022705 52 145 2.0 4.0 0.00 0.00 0.00 74 1013.4
20260504022205 53 170 1.0 4.0 0.00 0.00 0.00 74 1013.4
20260504021705 53 89 1.0 4.0 0.00 0.00 0.00 73 1013.4
20260504021206 53 124 2.0 4.0 0.00 0.00 0.00 73 1013.3
20260504020705 53 89 3.0 4.0 0.00 0.00 0.00 73 1013.3
20260504020213 54 79 3.0 4.0 0.00 0.00 0.00 73 1013.3
20260504015705 54 89 3.0 4.0 0.00 0.00 0.00 73 1013.4
20260504014705 55 77 3.0 4.0 0.00 0.00 0.00 73 1013.4
20260504014205 55 104 2.0 4.0 0.00 0.00 0.00 73 1013.3
20260504013705 55 95 2.0 3.0 0.00 0.00 0.00 73 1013.3
20260504013205 55 74 1.0 3.0 0.00 0.00 0.00 73 1013.3
20260504012705 56 79 1.0 2.0 0.00 0.00 0.00 73 1013.3
20260504012204 56 89 1.0 2.0 0.00 0.00 0.00 73 1013.3
20260504011705 56 72 0.0 2.0 0.00 0.00 0.00 73 1013.3
20260504011214 56 46 1.0 3.0 0.00 0.00 0.00 72 1013.3
20260504010705 56 89 1.0 3.0 0.00 0.00 0.00 72 1013.2
20260504010205 56 89 1.0 3.0 0.00 0.00 0.00 72 1013.3
20260504005705 57 67 1.0 3.0 0.00 0.00 0.00 71 1013.2
20260504005206 57 28 1.0 3.0 0.00 0.00 0.00 71 1013.1
20260504004706 57 117 1.0 1.0 0.00 0.00 0.00 70 1013.2
20260504004206 57 108 0.0 2.0 0.00 0.00 0.00 69 1013.2
20260504003705 57 46 0.0 2.0 0.00 0.00 0.00 68 1013.3
20260504003205 57 151 1.0 2.0 0.00 0.00 0.00 68 1013.2
20260504002705 57 1 1.0 2.0 0.00 0.00 0.00 68 1013.3
20260504001705 58 258 1.0 3.0 0.00 0.00 0.00 66 1013.4
20260504001204 58 40 1.0 3.0 0.00 0.00 0.00 66 1013.4
20260503235705 58 72 1.0 4.0 0.00 0.00 0.00 65 1013.6
20260503235206 59 89 1.0 4.0 0.00 0.00 0.00 64 1013.6
20260503234706 59 240 2.0 6.0 0.00 0.00 0.00 63 1013.7
20260503234205 59 151 3.0 6.0 0.00 0.00 0.00 63 1013.7
20260503233705 59 170 4.0 6.0 0.00 0.00 0.00 61 1013.7
20260503233205 60 195 4.0 7.0 0.00 0.00 0.00 61 1013.6
20260503232705 60 199 3.0 7.0 0.00 0.00 0.00 60 1013.7
20260503232205 60 204 2.0 4.0 0.00 0.00 0.00 60 1013.6
20260503231705 60 229 2.0 3.0 0.00 0.00 0.00 60 1013.6
20260503231205 61 210 2.0 3.0 0.00 0.00 0.00 60 1013.6
20260503230705 61 158 2.0 3.0 0.00 0.00 0.00 58 1013.5
20260503230205 61 135 2.0 3.0 0.00 0.00 0.00 58 1013.4
20260503225205 62 135 1.0 3.0 0.00 0.00 0.00 56 1013.4
20260503224705 62 104 1.0 2.0 0.00 0.00 0.00 53 1013.4
20260503224205 62 46 1.0 2.0 0.00 0.00 0.00 51 1013.5
20260503223705 62 331 0.0 1.0 0.00 0.00 0.00 51 1013.4
20260503223206 62 1 0.0 2.0 0.00 0.00 0.00 50 1013.4
20260503222705 62 89 1.0 2.0 0.00 0.00 0.00 49 1013.5
20260503222205 62 240 1.0 2.0 0.00 0.00 0.00 48 1013.4
20260503221705 62 46 1.0 2.0 0.00 0.00 0.00 48 1013.5
20260503221206 62 269 1.0 3.0 0.00 0.00 0.00 48 1013.4
20260503220705 63 135 1.0 3.0 0.00 0.00 0.00 47 1013.2
20260503220205 63 253 1.0 6.0 0.00 0.00 0.00 47 1013.2
20260503215705 63 302 2.0 6.0 0.00 0.00 0.00 47 1013.2
20260503215205 63 295 3.0 6.0 0.00 0.00 0.00 47 1013.2
20260503214705 63 272 3.0 9.0 0.00 0.00 0.00 46 1013.2
20260503214205 63 269 3.0 9.0 0.00 0.00 0.00 47 1013.2
20260503213205 63 293 4.0 10.0 0.00 0.00 0.00 46 1013.3
20260503212705 63 245 5.0 10.0 0.00 0.00 0.00 46 1013.4
20260503212206 63 302 6.0 12.0 0.00 0.00 0.00 45 1013.5
20260503211705 63 269 5.0 12.0 0.00 0.00 0.00 45 1013.5
20260503211205 64 318 6.0 13.0 0.00 0.00 0.00 45 1013.6
20260503210205 64 277 6.0 15.0 0.00 0.00 0.00 45 1013.3
20260503205705 64 248 7.0 15.0 0.00 0.00 0.00 44 1013.2
20260503205206 64 271 6.0 12.0 0.00 0.00 0.00 44 1013.0
20260503204705 64 281 6.0 12.0 0.00 0.00 0.00 44 1013.2
20260503204205 64 4 6.0 11.0 0.00 0.00 0.00 44 1013.2
20260503203706 64 257 6.0 11.0 0.00 0.00 0.00 44 1012.8
20260503203205 65 295 6.0 12.0 0.00 0.00 0.00 44 1012.8
20260503202706 65 278 6.0 17.0 0.00 0.00 0.00 44 1012.8
20260503201705 65 255 6.0 17.0 0.00 0.00 0.00 44 1012.8
20260503201208 65 293 6.0 16.0 0.00 0.00 0.00 44 1012.7
20260503200705 65 245 7.0 16.0 0.00 0.00 0.00 43 1012.7
20260503195705 66 298 8.0 17.0 0.00 0.00 0.00 43 1012.6
20260503195205 66 304 8.0 21.0 0.00 0.00 0.00 43 1012.6
20260503194706 66 265 8.0 21.0 0.00 0.00 0.00 42 1012.5
20260503194205 66 324 9.0 19.0 0.00 0.00 0.00 43 1012.5
20260503193705 66 303 11.0 19.0 0.00 0.00 0.00 43 1012.4
20260503193205 66 248 9.0 19.0 0.00 0.00 0.00 43 1012.4
20260503192205 67 279 4.0 11.0 0.00 0.00 0.00 45 1012.3
20260503191705 68 310 2.0 4.0 0.00 0.00 0.00 44 1012.1
20260503191206 68 283 1.0 3.0 0.00 0.00 0.00 44 1011.9
20260503190705 68 295 1.0 2.0 0.00 0.00 0.00 44 1011.9
20260503190205 68 231 0.0 2.0 0.00 0.00 0.00 44 1011.8
20260503185705 69 277 0.0 2.0 0.00 0.00 0.00 43 1011.7
20260503184205 69 286 1.0 3.0 0.00 0.00 0.00 41 1011.7
20260503183705 69 269 1.0 5.0 0.00 0.00 0.00 40 1011.6
20260503183214 69 269 2.0 5.0 0.00 0.00 0.00 40 1011.6
20260503182705 70 295 2.0 5.0 0.00 0.00 0.00 40 1011.6
20260503182205 70 208 2.0 6.0 0.00 0.00 0.00 39 1011.5
20260503181206 70 276 5.0 10.0 0.00 0.00 0.00 39 1011.4
20260503180705 70 245 5.0 9.0 0.00 0.00 0.00 39 1011.4
20260503180214 70 245 4.0 8.0 0.00 0.00 0.00 39 1011.4
20260503175705 70 248 4.0 8.0 0.00 0.00 0.00 39 1011.4
20260503175205 71 243 4.0 10.0 0.00 0.00 0.00 39 1011.3
20260503174705 71 236 5.0 10.0 0.00 0.00 0.00 39 1011.3
20260503174206 71 248 5.0 10.0 0.00 0.00 0.00 39 1011.3
20260503173705 71 243 5.0 7.0 0.00 0.00 0.00 40 1011.3
20260503173205 71 269 4.0 9.0 0.00 0.00 0.00 40 1011.3
20260503172205 71 182 4.0 9.0 0.00 0.00 0.00 40 1011.1
20260503171230 71 272 3.0 7.0 0.00 0.00 0.00 40 1011.1
20260503170705 71 314 3.0 8.0 0.00 0.00 0.00 41 1011.2
20260503170205 72 278 3.0 10.0 0.00 0.00 0.00 41 1011.2
20260503160205 76 210 7.0 13.0 0.00 0.00 0.00 35 1011.1
20260503150705 74 240 5.0 9.0 0.00 0.00 0.00 37 1011.4
20260503150208 74 274 6.0 12.0 0.00 0.00 0.00 37 1011.4
20260503140205 74 214 7.0 13.0 0.00 0.00 0.00 40 1012.1
20260503131206 74 193 5.0 8.0 0.00 0.00 0.00 36 1012.5
20260503130705 74 135 4.0 10.0 0.00 0.00 0.00 36 1012.5
20260503120205 75 240 3.0 9.0 0.00 0.00 0.00 37 1013.2
20260503110705 73 219 4.0 10.0 0.00 0.00 0.00 37 1013.7
20260503110204 73 253 5.0 10.0 0.00 0.00 0.00 38 1013.7
20260503100205 70 264 5.0 9.0 0.00 0.00 0.00 44 1014.4
20260503090205 67 243 4.0 8.0 0.00 0.00 0.00 47 1014.7
20260503080705 63 314 1.0 3.0 0.00 0.00 0.00 58 1015.0
20260503071705 55 46 1.0 4.0 0.00 0.00 0.00 73 1015.0
20260503070205 53 250 1.0 3.0 0.00 0.00 0.00 77 1015.0
20260503060206 48 262 2.0 4.0 0.00 0.00 0.00 86 1014.7
20260503054705 47 286 2.0 6.0 0.00 0.00 0.00 86 1014.6
20260503054206 47 34 2.0 7.0 0.00 0.00 0.00 85 1014.7
20260503053705 47 305 3.0 7.0 0.00 0.00 0.00 85 1014.8
20260503053206 47 1 3.0 4.0 0.00 0.00 0.00 85 1014.7
20260503052706 46 220 2.0 3.0 0.00 0.00 0.00 85 1014.6
20260503051705 46 46 2.0 5.0 0.00 0.00 0.00 84 1014.4
20260503051205 46 1 2.0 5.0 0.00 0.00 0.00 84 1014.5
20260503050705 45 252 2.0 3.0 0.00 0.00 0.00 83 1014.4
20260503050205 45 65 1.0 2.0 0.00 0.00 0.00 83 1014.3
20260503045705 45 51 1.0 2.0 0.00 0.00 0.00 83 1014.3
20260503045205 45 269 1.0 2.0 0.00 0.00 0.00 83 1014.4
20260503044706 45 1 1.0 2.0 0.00 0.00 0.00 83 1014.3
20260503044205 45 117 1.0 2.0 0.00 0.00 0.00 83 1014.3
20260503043705 45 39 1.0 2.0 0.00 0.00 0.00 83 1014.3
20260503043205 45 46 0.0 3.0 0.00 0.00 0.00 83 1014.3
20260503042705 45 46 1.0 3.0 0.00 0.00 0.00 82 1014.3
20260503042205 45 89 1.0 3.0 0.00 0.00 0.00 82 1014.3
20260503041705 46 68 1.0 2.0 0.00 0.00 0.00 82 1014.4
20260503041206 46 46 1.0 2.0 0.00 0.00 0.00 82 1014.4
20260503035705 46 269 1.0 3.0 0.00 0.00 0.00 82 1014.5
20260503035206 46 11 1.0 3.0 0.00 0.00 0.00 81 1014.5
20260503034706 46 32 0.0 1.0 0.00 0.00 0.00 81 1014.5
20260503034206 46 35 0.0 4.0 0.00 0.00 0.00 81 1014.5
20260503033705 46 89 1.0 4.0 0.00 0.00 0.00 81 1014.4
20260503032705 46 89 2.0 4.0 0.00 0.00 0.00 80 1014.3
20260503032205 46 67 2.0 4.0 0.00 0.00 0.00 80 1014.3
20260503031705 46 53 2.0 3.0 0.00 0.00 0.00 80 1014.3
20260503031205 46 72 2.0 3.0 0.00 0.00 0.00 80 1014.4
20260503030705 47 65 1.0 6.0 0.00 0.00 0.00 80 1014.5
20260503030205 47 269 1.0 7.0 0.00 0.00 0.00 80 1014.6